Location: �terpigny
(49.8910°N, 2.9249°E)
Time: 15:50:50
(UTC+00:00)

Cosmos 1934 Rocket - Pass Details

Date: 24 October 2021
Orbit: 938 x 999 km, 83.0° (Epoch: 28 November)

Event Time Altitude Azimuth Distance (km) Brightness Sun altitude
Rises 17:26:24 0° 170° (S) 3,611 7.0 -8.2°
Reaches altitude 10° 17:28:57 10° 166° (SSE) 2,663 6.2 -8.6°
Maximum altitude 17:34:48 52° 92° (E) 1,157 4.1 -9.5°
Drops below altitude 10° 17:40:39 10° 18° (NNE) 2,664 6.1 -10.5°
Sets 17:43:11 0° 13° (NNE) 3,613 6.8 -10.9°
